Showing default

RADUGA 26, 21016

Orbit data source: Space-Track

RADUGA 26, 21016 is a payload satellite owned by UNKS (CIS) in GEO that was launched on Thu, 20 Dec 1990 UTC via a PROTON-K/DM-2 launch vehicle from the Tyuratam Missile And Space Complex (TTMTR). Payload-class satellites include a variety of spacecraft equipped with specific instruments for various scientific and technological missions. These include communications satellites like Starlink; space stations such as the ISS; scientific satellites like the Hubble; Earth observation satellites from companies like Planet Labs, Umbra, and HawkEye 360; GPS; miniature CubeSats for education and research; and military/defense satellites.

Not visible in the next 10 days
Identifier
21016, 1990-112A
Orbit
GEO
Country
Flag of CISCIS
Related business
Manufacturer
NPO PM
Mission
Non-operational Defense Communications
Bus & Motor
RADUGA, Unknown motor
Mass
1,965 kg wet, ~1,800 kg dry
Launch date (UTC)
1990-12-20 (35 years ago)
Launch vehicle
PROTON-K/DM-2
Launch site
Tyuratam Missile And Space Complex (TTMTR)
Object type
Payload
Rocket body
Debris
Shape & HBR
Cyl + 2 Pan, 4.8 m
Radar Cross Section
16.975 m², Large (>1 m²)

Expand to show TLE details & history
Last TLE update: 14 hours ago

TLE from 14 hours ago
0 RADUGA 26
1 21016U 90112A   26070.97807275 -.00000002  00000-0  00000+0 0  9995
2 21016  12.9219 338.5876 0002703 106.0664 142.3432  1.00227989129280
Epoch: 2026-03-11T23:28Z
TLE epoch observation values (Epoch: 2026-03-11T23:28:25.485Z)
Latitude
-12.00602°
Longitude
64.78718°
Altitude
35,809.859 km
Speed
3.073 km/s
True Right ascension
15h 06m 06s
True Declination
-11° 59' 39"
Sunlit
Object was in daylight at epoch
Visualization orbit readout
Latitude
Unknown
Longitude
Unknown
Altitude
Unknown
Speed
Unknown
Apparent Right ascension
Unknown
Apparent Declination
Unknown
Sunlit
N/A
Visualization observer readout
Local Sidereal Time
17:35:16
Azimuth
Unknown
Elevation
Unknown
Doppler factor
Unknown
Orbital elements
Apogee altitude
35,811.27 km
Perigee altitude
35,788.468 km
Semi-major axis
42,178.006 km
Eccentricity
0.00027
Inclination
12.9219°
RAAN
338.5876°
Arg. of periapsis
106.0664°
True anomaly
142.36212°
Mean anomaly
142.3432°
Eccentric anomaly
142.35266°
Mean motion
0.25056 °/min
Orbital period
1,436.77 mins
BSTAR
0
Loading maneuver chart data...
Computing Atmospheric mass density...
Loading historical data...
Loading historical data...
Loading historical data...
Loading historical data...
Loading historical data...
Loading historical data...
Loading historical data...

Documentation

Showing up to 5 results
|